This is the latest recevied weather packets stored in our database for station/object T10BNorth. If no packets are shown the sender has not sent any weather packets the latest 10 day(s).
| Time | Temp. | Humidity | Pressure | Rain* | Wind** | Luminosity | Snow |
|---|---|---|---|---|---|---|---|
| 1777912283 | 14.44° C | 55% | 1004.9 hPa | 0 mm | - | 622 W/m² | - |
| 1777912218 | 14.44° C | 55% | 1004.9 hPa | 0 mm | - | 649 W/m² | - |
| 1777912160 | 14.44° C | 55% | 1004.9 hPa | 0 mm | - | 635 W/m² | - |
| 1777912099 | 14.44° C | 56% | 1004.9 hPa | 0 mm | - | 543 W/m² | - |
| 1777912040 | 14.44° C | 55% | 1004.8 hPa | 0 mm | - | 673 W/m² | - |
| 1777911977 | 14.44° C | 56% | 1004.7 hPa | 0 mm | - | 673 W/m² | - |
| 1777911906 | 13.89° C | 57% | 1004.8 hPa | 0 mm | - | 673 W/m² | - |
| 1777911842 | 13.89° C | 58% | 1004.6 hPa | 0 mm | - | 659 W/m² | - |
| 1777911784 | 13.89° C | 58% | 1004.8 hPa | 0 mm | - | 812 W/m² | - |
| 1777911723 | 13.89° C | 58% | 1004.7 hPa | 0 mm | - | 786 W/m² | - |
| 1777911663 | 13.89° C | 56% | 1004.7 hPa | 0 mm | - | 700 W/m² | - |
| 1777911599 | 13.89° C | 56% | 1004.8 hPa | 0 mm | - | 700 W/m² | - |
| 1777911538 | 13.89° C | 56% | 1004.7 hPa | 0 mm | - | 700 W/m² | - |
| 1777911515 | 13.89° C | 57% | 1004.7 hPa | 0 mm | - | 700 W/m² | - |
| 1777911420 | 13.89° C | 59% | 1004.7 hPa | 0 mm | - | 700 W/m² | - |
| 1777911358 | 13.89° C | 56% | 1004.6 hPa | 0 mm | - | 619 W/m² | - |
| 1777911292 | 13.89° C | 57% | 1004.8 hPa | 0 mm | - | 594 W/m² | - |
| 1777911231 | 13.89° C | 57% | 1004.7 hPa | 0 mm | - | 519 W/m² | - |
| 1777911172 | 13.89° C | 57% | 1004.6 hPa | 0 mm | - | 552 W/m² | - |
| 1777911111 | 13.89° C | 56% | 1004.9 hPa | 0 mm | - | 527 W/m² | - |
| 1777911051 | 13.89° C | 57% | 1004.7 hPa | 0 mm | - | 638 W/m² | - |
| 1777910982 | 13.89° C | 56% | 1004.7 hPa | 0 mm | - | 638 W/m² | - |
| 1777910921 | 13.89° C | 58% | 1004.8 hPa | 0 mm | - | 563 W/m² | - |
| 1777910863 | 13.89° C | 57% | 1004.7 hPa | 0 mm | - | 448 W/m² | - |
| 1777910801 | 13.89° C | 57% | 1004.6 hPa | 0 mm | - | 485 W/m² | - |
* Rain latest hour (hover to see other rain measurements)
** Current wind speed in m/s (hover to see current wind gust speed)